Portada
METAR-TAF:

METAR-TAF

Aeroports :

Minocqua-Woodruff, Wisconsin, Estats Units d'Amèrica

latitud: 45-56N, longitud: 089-44W, altitud: 496 m

Observació

L'informe es va fer fa 27 minuts, a les 04:35 UTC
Vent 3 kt del Nord
Temperatura 0°C
Humitat 93%
Pressió 1022 hPa
Visibilitat: 1.2 km
Cel ennuvolat a una alçada de 100 ft
boirina

METAR: KARV 250435Z AUTO 35003KT 3/4SM BR BKN001 00/M01 A3018 RMK AO2 T10011007

Hora: 00:02 (05:02 UTC)


TAF: manca

Observacions i pronòstics meteorològics de més de 4000 aeroports (METAR i TAF).

Les estacions disponibles són els punts grocs i vermells al mapa.

Posi el ratolí al punt desitjat per veure el nom de l'estació.

Feu clic per veure les observacions i els pronòstics meteorològics.

Per canviar el mapa: feu clic els botons verds amb una creu de color negre per apropar; al botó verd amb un guió per allunyar la imatge; o en les fletxes verdes per a mapes adjacents.


METAR-TAF: